User: anonymous   Login
Location: Brede
(50.9167°N, 0.6000°E)
Time: 07:14:06
(UTC+00:00)
Language:

Cosmos 2026 Rocket - Orbit

View from above orbital plane
View from above orbital plane
View from above satellite
View from above satellite

Ground track
Ground track

The orbit data is extracted from the following two-line orbital elements,

1 20046U 89042B   20295.04442767 +.00000142 +00000-0 +12509-3 0  9994
2 20046 082.9334 112.5593 0040903 241.4877 118.2159 13.78202405577343
Epoch (UTC): 21 October 2020 01:03:58
Eccentricity: 0.0040903
inclination: 82.9334°
perigee height: 940 km
apogee height: 1000 km
right ascension of ascending node: 112.5593°
argument of perigee: 241.4877°
revolutions per day: 13.78202405
mean anomaly at epoch: 118.2159°
orbit number at epoch: 57734

The dashed part of the orbit path shows where the satellite is in the earth's shadow,  

DLR